Location: Albany
(35.0170°S, 117.8920°E)
Time: 10:05:50
(UTC+08:00)

S-56A Canister/Altair - Pass Details

Date: 23 January 2021
Orbit: 632 x 2501 km, 38.9° (Epoch: 25 February)

Event Time Altitude Azimuth Distance (km) Brightness Sun altitude
Rises 16:20:29 0° 271° (W) 6,029 13.1 35.2°
Reaches altitude 10° 16:24:19 10° 269° (W) 5,115 13.2 34.4°
Maximum altitude 16:39:43 76° 183° (S) 2,478 10.6 31.2°
Drops below altitude 10° 16:52:52 10° 97° (E) 4,452 11.0 28.5°
Sets 16:55:58 0° 94° (E) 5,239 11.2 27.9°
